This is the latest recevied weather packets stored in our database for station/object VK6DC-13. If no packets are shown the sender has not sent any weather packets the latest 10 day(s).
| Time | Temp. | Humidity | Pressure | Rain* | Wind** | Luminosity | Snow |
|---|---|---|---|---|---|---|---|
| 1787734219 | 14.44° C | 98% | 1017.6 hPa | 5.59 mm | - | 14 W/m² | - |
| 1787733617 | 14.44° C | 97% | 1017.6 hPa | 6.1 mm | - | 13 W/m² | - |
| 1787733034 | 14.44° C | 97% | 1017.7 hPa | 6.1 mm | - | 11 W/m² | - |
| 1787732431 | 14.44° C | 97% | 1017.7 hPa | 6.6 mm | - | 13 W/m² | - |
| 1787731829 | 14.44° C | 97% | 1017.5 hPa | 6.86 mm | - | 19 W/m² | - |
| 1787731226 | 13.89° C | 97% | 1017.5 hPa | 6.35 mm | - | 25 W/m² | - |
| 1787730623 | 14.44° C | 97% | 1017.4 hPa | 6.1 mm | - | 16 W/m² | - |
| 1787730021 | 14.44° C | 97% | 1017.4 hPa | 5.33 mm | - | 29 W/m² | - |
| 1787729418 | 15° C | 97% | 1017.4 hPa | 4.57 mm | - | 22 W/m² | - |
| 1787728816 | 15° C | 97% | 1017.3 hPa | 3.3 mm | - | 32 W/m² | - |
| 1787728233 | 15° C | 97% | 1017.3 hPa | 3.05 mm | - | 37 W/m² | - |
| 1787727631 | 15° C | 97% | 1017.4 hPa | 2.29 mm | - | 44 W/m² | - |
| 1787727028 | 15° C | 97% | 1017.2 hPa | 2.03 mm | - | 43 W/m² | - |
| 1787726426 | 15° C | 97% | 1017 hPa | 2.29 mm | - | 76 W/m² | - |
| 1787725823 | 15° C | 97% | 1016.9 hPa | 2.54 mm | - | 79 W/m² | - |
| 1787725221 | 15° C | 97% | 1017 hPa | 2.79 mm | - | 75 W/m² | - |
| 1787724618 | 15° C | 97% | 1016.9 hPa | 2.54 mm | - | 66 W/m² | - |
| 1787724035 | 15° C | 97% | 1017.2 hPa | 2.29 mm | - | 81 W/m² | - |
| 1787723433 | 15° C | 97% | 1017.2 hPa | 2.29 mm | - | 84 W/m² | - |
| 1787722830 | 15° C | 96% | 1017.3 hPa | 1.78 mm | - | 79 W/m² | - |
| 1787722228 | 15° C | 96% | 1017.4 hPa | 1.27 mm | - | 83 W/m² | - |
| 1787721626 | 15° C | 96% | 1017.3 hPa | 0.76 mm | - | 79 W/m² | - |
| 1787721023 | 15° C | 96% | 1017.4 hPa | 1.27 mm | - | 70 W/m² | - |
| 1787720420 | 15° C | 96% | 1017.5 hPa | 1.78 mm | - | 73 W/m² | - |
| 1787719817 | 15° C | 96% | 1017.7 hPa | 2.03 mm | - | 113 W/m² | - |
* Rain latest hour (hover to see other rain measurements)
** Current wind speed in m/s (hover to see current wind gust speed)